Theta_e
314 313 312 312 310 310 312 310 309 308 308 308 308 309 309 309 309 308 308 308 306 306 305 303 302 303 304 303 303 303 304 304 304 303 303 303 303 302 302 301 302 301 301
314 313 313 312 311 312 311 310 308 309 310 309 309 309 309 309 309 309 308 308 308 307 307 305 304 303 303 302 302 302 303 301 302 302 303 302 301 300 300 300 300 301 300
314 313 313 312 313 312 310 309 309 309 310 310 309 309 309 309 309 309 308 308 308 307 307 306 304 302 302 301 302 301 301 301 301 300 300 300 300 299 300 300 299 300 300
314 314 314 313 313 311 309 309 309 311 310 310 310 308 308 308 308 308 308 308 307 306 305 304 302 302 301 302 301 301 301 301 300 299 299 299 300 299 299 300 299 300 300
314 314 314 312 311 310 309 310 310 308 308 309 308 307 308 307 306 307 307 306 305 303 302 302 301 301 300 300 300 300 300 301 299 299 298 298 299 299 299 298 298 300 300
315 314 313 311 312 312 310 311 309 309 309 308 308 307 307 307 306 304 303 304 303 302 301 301 301 300 298 298 299 299 299 300 299 299 299 299 298 298 299 298 298 299 300
314 313 312 311 312 312 311 309 309 309 307 307 307 307 307 308 306 303 302 303 302 302 301 300 299 298 299 298 298 299 299 298 298 298 298 298 299 299 299 299 298 298 298
314 312 311 312 311 310 309 309 309 308 308 308 307 307 307 307 305 303 302 302 302 302 299 298 298 299 299 298 298 298 298 298 298 297 297 298 298 298 297 297 297 298 297
313 311 312 310 310 309 309 309 309 308 308 307 307 307 307 307 304 303 302 302 302 302 299 299 299 298 298 298 297 297 297 298 298 296 295 295 296 296 295 296 298 298 299
311 312 310 309 309 310 310 310 308 306 306 306 307 306 306 305 305 302 301 301 302 301 300 300 299 298 298 298 297 296 296 297 297 297 297 296 297 297 295 297 299 299 298
311 310 309 309 310 309 308 308 306 306 306 307 306 306 306 305 303 301 300 300 301 300 300 300 300 299 298 298 297 296 296 295 295 296 296 296 297 297 296 298 298 299 299
309 309 310 310 308 306 304 306 306 306 306 306 306 306 305 304 302 301 299 298 297 298 299 300 300 298 298 298 297 297 296 295 295 294 294 296 296 297 296 297 299 300 300
310 310 309 308 307 305 304 305 305 306 306 306 306 305 304 303 302 300 299 298 298 298 298 298 298 298 298 298 298 297 296 295 294 294 294 295 296 297 296 297 299 301 303
310 310 309 308 307 307 304 304 305 306 305 306 305 304 303 303 302 300 299 298 297 297 297 297 297 297 298 298 298 297 295 294 294 294 294 294 294 296 297 297 299 301 303
310 309 309 308 307 305 305 304 305 306 304 304 304 303 303 301 300 298 297 297 297 296 296 296 297 298 298 297 297 296 295 293 293 293 293 293 293 296 297 297 298 300 303
309 309 308 308 307 306 305 306 305 303 302 302 301 300 300 299 298 297 297 297 297 297 296 296 296 296 296 296 295 295 294 293 292 292 292 292 293 295 296 297 298 300 303
310 309 306 305 306 305 305 305 305 305 304 303 301 300 299 298 297 296 297 297 297 296 295 295 295 294 294 293 293 293 293 292 291 291 291 292 292 294 295 297 298 300 301
309 305 304 305 305 305 304 304 305 305 305 304 302 300 299 297 296 296 297 297 296 295 294 294 293 293 292 292 292 291 291 291 290 290 291 291 292 293 296 297 297 299 300
307 305 305 305 304 303 303 303 304 305 304 303 301 300 298 297 297 297 296 296 294 293 292 292 291 291 291 290 290 290 289 290 290 290 290 291 291 293 295 296 296 298 299
304 303 303 304 304 303 303 304 304 303 302 301 299 299 298 297 297 296 295 293 292 291 291 290 290 289 289 289 289 289 289 289 289 290 290 290 291 293 295 296 297 299 301
305 304 303 304 303 303 304 303 302 301 299 299 300 299 296 295 296 295 293 292 291 290 290 289 289 289 289 289 289 288 288 289 289 290 290 290 291 293 295 295 296 297 300
304 304 303 303 303 302 302 301 299 299 300 300 299 297 296 296 295 293 291 291 291 290 290 289 289 289 289 289 289 289 288 289 289 290 290 290 292 293 294 295 297 298 301
304 303 303 303 302 301 299 298 298 299 299 299 297 296 296 295 293 291 291 291 291 291 291 290 290 291 291 291 290 290 289 289 289 290 290 291 292 294 295 296 297 300 302
303 302 302 302 300 298 297 298 299 299 299 298 297 295 294 293 292 291 292 291 290 290 291 291 291 291 291 291 292 291 290 290 290 290 291 292 294 295 296 298 300 301 302
302 302 301 300 298 297 297 299 299 299 299 297 295 294 293 292 292 292 291 290 290 291 292 292 292 292 293 294 294 294 293 292 290 290 292 294 295 296 298 300 301 301 301
301 300 299 297 296 296 298 299 298 298 297 295 294 293 292 291 291 291 290 291 291 292 293 294 294 294 295 295 294 293 293 292 291 292 294 296 297 299 300 301 301 301 301
Wind_Speed
12 10 9 7 7 5 3 2 3 3 4 4 6 8 9 10 11 12 13 16 16 18 17 15 15 15 18 21 20 20 19 19 14 24 23 21 20 22 24 24 24 24 22
10 10 8 6 6 3 1 1 2 5 6 8 9 11 12 13 14 14 16 18 19 21 20 17 17 16 18 19 18 19 19 19 20 21 22 19 18 22 22 24 24 21 23
11 9 8 5 3 0 1 3 6 9 10 11 12 13 14 14 14 16 17 18 19 19 18 16 15 15 18 15 16 17 17 18 19 19 18 18 19 18 22 20 21 22 20
11 9 6 3 2 2 4 6 9 11 12 12 11 12 12 13 14 15 14 13 15 16 14 13 15 17 15 15 16 17 17 19 19 20 18 19 19 18 19 19 21 20 21
11 6 3 4 4 6 7 9 11 12 12 10 11 12 12 13 13 12 10 11 12 14 17 17 16 16 16 16 17 19 19 18 18 19 18 18 18 15 16 14 21 20 23
7 4 4 5 6 8 10 10 10 11 10 12 12 13 15 15 15 11 10 10 11 14 19 21 18 17 16 17 18 19 18 20 19 18 18 15 15 16 16 16 18 17 6
6 5 4 4 6 9 8 7 9 11 12 12 13 14 16 16 15 11 13 12 12 14 16 17 18 16 16 16 17 18 18 17 15 17 19 18 18 17 16 17 16 18 17
7 5 5 5 5 6 7 9 10 11 11 14 16 16 16 17 13 12 17 15 16 17 18 20 18 19 15 16 16 19 19 17 14 13 15 17 16 15 15 18 19 17 25
8 6 6 6 5 8 9 9 10 11 12 14 16 16 15 13 10 14 19 19 22 20 20 23 20 17 16 17 17 18 19 18 14 16 17 16 14 15 14 16 14 11 11
7 6 6 5 5 8 9 10 10 11 14 14 15 12 11 10 13 18 20 20 23 22 21 20 21 19 17 17 16 16 18 18 16 16 16 13 12 12 12 11 11 10 9
9 7 6 4 4 7 8 9 11 11 11 12 13 10 7 9 15 20 20 19 22 24 25 24 23 20 21 19 19 18 18 18 18 15 14 12 11 9 9 8 10 11 9
8 6 4 2 4 6 8 8 8 10 11 11 9 10 11 14 16 20 23 23 23 23 24 23 22 21 22 22 22 19 18 16 14 12 11 10 9 9 9 10 11 12 13
7 5 2 1 4 6 8 9 9 10 10 10 10 14 17 18 19 21 21 24 23 22 22 24 25 23 21 20 17 16 15 14 12 10 10 9 9 10 10 10 10 10 12
6 5 1 2 6 6 6 7 8 9 9 10 12 16 17 19 22 23 24 23 24 24 25 25 26 24 21 18 16 15 13 12 11 10 9 10 9 8 8 7 9 8 8
6 3 1 3 4 6 8 8 7 8 6 9 12 14 17 21 25 30 29 29 27 27 28 19 18 15 16 15 15 13 12 12 11 11 10 9 9 8 7 6 7 7 6
5 3 2 4 6 8 10 9 11 9 8 9 11 12 15 21 28 32 30 27 26 24 22 16 15 15 15 15 15 12 12 11 10 9 8 8 8 7 5 6 5 5 5
4 3 3 6 9 9 9 10 14 11 10 12 14 13 20 27 32 32 26 25 24 20 16 17 16 16 14 16 15 14 13 12 9 8 7 7 6 6 5 3 4 4 4
3 3 4 5 7 7 10 13 12 11 14 18 17 19 24 29 32 28 26 25 21 19 18 18 17 17 16 16 15 14 13 11 8 6 6 5 6 5 3 2 2 3 4
3 3 4 5 5 8 12 15 11 11 16 18 21 23 24 27 26 24 24 19 21 20 20 19 19 18 17 15 15 13 11 9 6 5 5 5 5 6 3 1 1 2 2
4 7 7 6 9 12 14 12 12 14 16 19 22 23 25 27 24 26 23 23 21 20 21 20 20 19 17 15 13 10 8 6 3 3 3 3 5 7 2 2 1 2 3
6 6 8 9 11 12 10 11 13 16 17 20 21 20 26 23 22 23 24 24 23 23 23 22 22 21 18 14 12 10 6 4 2 2 3 4 6 8 5 3 2 2 3
7 7 8 9 9 10 11 13 15 16 18 19 21 23 25 22 22 23 24 26 27 26 25 24 22 20 18 16 14 10 6 2 1 4 5 6 9 8 6 4 3 3 7
8 8 8 8 9 11 13 14 15 17 19 19 21 22 23 23 23 24 26 28 30 30 28 26 24 23 21 18 13 8 3 1 5 7 8 9 10 9 6 5 5 8 13
9 9 9 9 12 12 14 15 16 18 17 19 21 21 22 23 24 27 29 32 31 30 27 25 24 23 20 16 12 6 4 7 9 10 9 11 11 9 7 7 10 16 17
10 9 9 11 12 13 14 16 17 18 18 19 21 21 22 23 25 29 31 31 30 27 26 24 24 22 18 15 12 10 10 13 13 15 13 13 12 9 10 16 19 19 19
10 9 10 12 11 12 14 16 17 18 19 19 20 20 22 24 27 29 30 30 28 26 25 25 24 22 18 16 15 15 17 17 19 17 16 14 12 14 18 20 20 21 20
Wind_Direction
142 148 153 159 160 166 158 70 23 344 325 309 306 309 313 314 310 301 297 297 292 292 290 289 297 306 311 314 310 304 296 297 294 302 303 305 303 311 314 313 307 306 301
152 161 169 174 175 166 47 350 316 300 292 297 300 300 303 305 303 300 299 296 296 296 297 293 295 303 310 314 314 310 305 299 294 296 303 302 311 309 307 312 312 305 303
167 172 180 179 171 357 328 317 293 292 293 293 299 301 299 300 300 303 302 302 305 305 303 298 294 302 308 310 315 317 314 313 308 306 305 305 299 306 311 309 313 312 307
176 184 183 180 211 261 288 287 289 293 298 300 300 304 300 298 302 307 311 317 322 320 314 303 299 300 298 302 304 308 312 312 316 315 306 304 309 318 311 312 317 317 321
181 185 189 220 249 256 271 284 291 297 302 298 297 301 297 300 302 302 314 324 328 327 321 312 305 297 290 293 297 301 303 308 311 313 313 313 316 316 317 315 304 320 319
180 195 212 253 263 263 275 283 288 299 298 298 293 294 299 301 294 297 315 314 321 325 328 320 313 308 305 302 295 295 289 300 300 303 304 304 308 308 317 319 313 322 321
183 210 240 238 264 278 273 279 292 296 300 303 298 297 296 299 293 294 306 308 309 312 314 318 316 313 311 303 301 298 299 300 290 290 291 300 308 308 313 309 311 311 306
196 202 227 248 263 266 275 284 294 299 297 301 301 302 300 304 290 298 306 303 298 299 312 314 316 313 310 308 302 303 302 305 300 289 286 296 300 303 304 300 301 301 307
193 193 221 225 247 274 277 283 296 303 304 301 302 307 309 307 299 310 311 300 300 299 300 308 315 306 306 316 301 298 298 302 302 295 291 295 292 292 295 297 294 303 310
188 209 200 225 249 274 284 292 296 306 302 307 312 314 315 318 317 321 320 309 305 301 298 298 299 304 302 311 310 295 290 296 300 303 304 301 292 293 300 285 286 285 289
170 186 206 220 270 278 294 296 302 307 307 314 316 323 326 316 319 326 324 317 308 305 300 298 294 288 300 295 306 307 292 296 294 295 298 297 297 295 299 296 281 276 272
170 183 203 234 275 289 304 307 303 311 315 321 324 330 327 324 322 324 327 330 325 310 302 300 297 292 297 293 298 306 308 303 292 288 290 290 296 301 302 303 290 277 267
173 173 163 315 302 301 306 303 313 318 322 325 328 327 325 327 328 330 332 326 325 317 309 304 306 297 294 293 287 302 307 300 288 280 279 279 289 297 303 309 308 290 278
166 144 158 329 307 310 309 306 309 319 318 324 326 326 324 325 330 333 323 321 320 318 311 308 303 291 290 287 283 293 294 293 285 274 277 281 287 285 294 309 315 315 301
143 133 89 333 322 320 314 308 306 302 301 317 321 317 321 323 326 325 322 319 318 320 323 309 303 297 296 295 289 285 297 300 294 286 278 277 280 278 286 306 315 316 293
147 111 10 343 321 313 315 315 311 313 303 312 315 310 316 318 324 330 330 324 323 328 320 306 307 310 306 304 298 284 301 294 296 288 270 268 263 264 279 308 312 301 308
128 67 7 335 316 322 319 318 317 318 318 322 323 319 322 329 334 337 338 336 333 328 320 315 313 312 310 315 312 303 300 303 298 285 265 256 252 252 254 293 315 316 326
108 31 348 347 338 337 331 324 316 317 322 324 326 326 332 333 335 343 344 335 334 333 329 323 321 320 314 313 317 315 315 310 304 284 262 245 235 226 238 271 329 335 319
84 25 355 355 1 344 337 326 322 329 330 331 331 334 341 336 340 343 341 345 338 334 332 328 328 327 326 328 327 327 319 309 296 279 252 234 217 199 212 223 321 342 342
77 48 33 17 1 350 343 335 344 342 341 339 338 341 344 344 347 342 345 344 336 333 329 327 329 332 335 332 330 327 325 319 303 260 221 197 192 180 185 162 36 45 57
76 50 41 15 5 1 352 354 355 347 345 342 343 346 345 341 338 342 342 339 336 335 334 333 335 340 342 334 332 334 327 320 290 198 173 167 169 158 146 152 105 84 63
74 51 30 23 23 20 1 358 355 353 348 346 346 343 344 347 345 342 341 341 347 350 350 348 348 347 347 343 339 334 330 321 157 154 153 152 156 149 148 139 123 96 108
69 44 46 43 29 10 0 3 0 355 350 348 346 342 346 347 345 344 345 351 351 353 355 354 354 355 357 354 351 347 335 159 150 148 144 142 146 149 140 123 115 107 114
62 61 54 40 27 8 5 4 1 354 353 351 346 345 346 346 345 350 354 352 349 354 358 358 0 360 3 2 4 18 90 135 137 141 135 137 137 134 121 113 121 124 111
70 64 50 38 21 9 8 7 2 357 355 351 346 347 346 346 352 356 355 353 354 1 7 12 14 15 16 20 38 73 98 124 130 129 128 129 123 110 105 118 121 120 118
70 62 48 36 19 15 13 6 3 2 354 347 349 349 346 350 355 356 357 360 3 10 17 22 25 28 33 52 67 90 108 120 125 122 122 116 103 103 116 116 118 116 117